DW7087 Weather Reports


time (UTC)temp
F
wind
direction
speed
knots
gust
knots
rain 1hr
in
rain 24hr
in
rain mn
in
humidity
%
barometer
mb
20260508024507 46 0 0.0 0.0 0.00 0.00 0.00 89 1016.0
20260508023628 45 0 0.0 0.0 0.00 0.00 0.00 89 1015.9
20260508022707 45 0 0.0 0.0 0.00 0.00 0.00 89 1015.9
20260508021807 45 0 0.0 0.0 0.00 0.00 0.00 89 1015.8
20260508020907 45 0 0.0 0.0 0.00 0.00 0.00 88 1015.9
20260508020007 45 0 0.0 0.0 0.00 0.00 0.00 88 1015.8
20260508015407 45 90 0.0 0.9 0.00 0.00 0.00 88 1015.9
20260508014507 44 0 0.0 0.0 0.00 0.00 0.00 88 1015.8
20260508013607 44 0 0.0 0.0 0.00 0.00 0.00 88 1015.8
20260508012707 45 0 0.0 0.0 0.00 0.00 0.00 87 1015.8
20260508011828 45 0 0.0 0.0 0.00 0.00 0.00 87 1016.0
20260508010907 45 0 0.0 0.0 0.00 0.00 0.00 87 1016.2
20260508010028 45 0 0.0 0.0 0.00 0.00 0.00 86 1015.9
20260508005407 45 0 0.0 0.0 0.00 0.00 0.00 86 1016.1
20260508004507 45 90 0.0 0.9 0.00 0.00 0.00 85 1016.1
20260508003628 44 0 0.0 0.0 0.00 0.00 0.00 86 1016.1
20260508002728 44 0 0.0 0.0 0.00 0.00 0.00 85 1016.1
20260508001807 44 0 0.0 0.0 0.00 0.00 0.00 84 1016.2
20260508000907 45 0 0.0 0.0 0.00 0.00 0.00 83 1016.1
20260508000007 45 0 0.0 0.0 0.00 0.00 0.00 82 1016.2
20260507235428 45 0 0.0 0.0 0.00 0.00 0.00 81 1016.3
20260507234507 45 0 0.0 0.0 0.00 0.00 0.00 80 1016.4
20260507233607 46 0 0.0 0.0 0.00 0.00 0.00 79 1016.4
20260507232707 46 0 0.0 0.0 0.00 0.00 0.00 79 1016.5
20260507231807 46 0 0.0 0.0 0.00 0.00 0.00 77 1016.4
20260507230907 47 0 0.0 0.0 0.00 0.00 0.00 77 1016.4
20260507230007 47 0 0.0 0.0 0.00 0.00 0.00 76 1016.4
20260507225407 47 0 0.0 0.0 0.00 0.00 0.00 76 1016.5
20260507224507 48 0 0.0 0.0 0.00 0.00 0.00 76 1016.6
20260507223607 49 0 0.0 0.0 0.00 0.00 0.00 75 1016.5
20260507222707 49 0 0.0 0.0 0.00 0.00 0.00 74 1016.6
20260507221807 49 90 0.0 0.9 0.00 0.00 0.00 74 1016.4
20260507220907 50 90 0.0 0.9 0.00 0.00 0.00 72 1016.4
20260507220007 51 0 0.0 0.0 0.00 0.00 0.00 71 1016.4
20260507215428 51 0 0.0 0.0 0.00 0.00 0.00 70 1016.6
20260507214507 52 0 0.0 0.0 0.00 0.00 0.00 70 1016.7
20260507213607 52 0 0.0 0.0 0.00 0.00 0.00 69 1016.6
20260507212707 52 171 0.9 1.7 0.00 0.00 0.00 69 1016.6
20260507211807 53 164 0.0 1.7 0.00 0.00 0.00 69 1016.5
20260507210907 53 176 1.7 2.6 0.00 0.00 0.00 67 1016.5
20260507210007 53 167 1.7 2.6 0.00 0.00 0.00 66 1016.5
20260507205407 54 174 0.9 1.7 0.00 0.00 0.00 65 1016.3
20260507204507 54 177 0.0 1.7 0.00 0.00 0.00 64 1016.4
20260507203628 54 160 1.7 3.5 0.00 0.00 0.00 63 1016.2
20260507202707 55 152 0.9 2.6 0.00 0.00 0.00 62 1016.1
20260507201807 55 162 1.7 2.6 0.00 0.00 0.00 61 1016.1
20260507200907 56 164 1.7 2.6 0.00 0.00 0.00 61 1016.0
20260507200007 56 187 2.6 4.3 0.00 0.00 0.00 60 1015.9
20260507195407 56 171 2.6 4.3 0.00 0.00 0.00 60 1015.8
20260507194507 56 178 1.7 3.5 0.00 0.00 0.00 60 1015.6
20260507193607 57 174 2.6 6.1 0.00 0.00 0.00 60 1015.4
20260507192707 57 162 3.5 6.1 0.00 0.00 0.00 61 1015.5
20260507191807 57 162 4.3 7.0 0.00 0.00 0.00 60 1015.4
20260507190907 58 187 3.5 5.2 0.00 0.00 0.00 60 1015.2
20260507190028 58 175 4.3 6.1 0.00 0.00 0.00 59 1015.2
20260507185407 58 179 3.5 4.3 0.00 0.00 0.00 59 1015.2
20260507184528 58 193 3.5 7.0 0.00 0.00 0.00 58 1015.2
20260507183607 58 197 2.6 4.3 0.00 0.00 0.00 58 1015.2
20260507182707 59 222 3.5 4.3 0.00 0.00 0.00 57 1015.2
20260507181807 59 200 2.6 3.5 0.00 0.00 0.00 54 1015.1
20260507180907 59 211 3.5 4.3 0.00 0.00 0.00 52 1015.0
20260507180007 60 159 2.6 3.5 0.00 0.00 0.00 51 1014.9
20260507175428 60 159 2.6 4.3 0.00 0.00 0.00 50 1014.8
20260507174507 60 193 2.6 4.3 0.00 0.00 0.00 50 1014.9
20260507173607 60 172 2.6 3.5 0.00 0.00 0.00 51 1014.8
20260507172707 60 146 3.5 5.2 0.00 0.00 0.00 50 1014.9
20260507171807 60 154 4.3 6.1 0.00 0.00 0.00 50 1014.8
20260507170907 60 171 3.5 6.1 0.00 0.00 0.00 50 1014.9
20260507170007 60 179 4.3 7.0 0.00 0.00 0.00 49 1014.9
20260507165407 60 181 6.1 9.6 0.00 0.00 0.00 50 1014.9
20260507164507 61 170 5.2 7.0 0.00 0.00 0.00 51 1014.9
20260507163607 60 141 6.1 8.7 0.00 0.00 0.00 51 1014.9
20260507162707 60 155 6.1 7.8 0.00 0.00 0.00 50 1015.0
20260507161807 61 163 6.1 8.7 0.00 0.00 0.00 51 1015.0
20260507160928 61 169 5.2 8.7 0.00 0.00 0.00 50 1015.0
20260507160028 62 155 6.1 8.7 0.00 0.00 0.00 47 1015.0
20260507155407 62 149 3.5 7.0 0.00 0.00 0.00 39 1015.0
20260507154507 63 220 3.5 5.2 0.00 0.00 0.00 36 1014.9
20260507153607 63 182 3.5 5.2 0.00 0.00 0.00 36 1014.9
20260507152707 64 143 3.5 6.1 0.00 0.00 0.00 36 1014.9
20260507151807 63 136 4.3 6.1 0.00 0.00 0.00 35 1014.9
20260507150907 63 154 3.5 4.3 0.00 0.00 0.00 35 1014.9
20260507150007 63 86 2.6 5.2 0.00 0.00 0.00 35 1014.9
20260507145407 63 96 1.7 5.2 0.00 0.00 0.00 34 1014.9
20260507144507 64 71 3.5 4.3 0.00 0.00 0.00 33 1015.1
20260507143628 64 95 3.5 4.3 0.00 0.00 0.00 33 1015.0
20260507142707 64 77 1.7 4.3 0.00 0.00 0.00 33 1015.1
20260507141807 63 63 3.5 7.0 0.00 0.00 0.00 32 1015.1
20260507140907 63 219 1.7 3.5 0.00 0.00 0.00 35 1015.3
20260507140007 63 125 1.7 3.5 0.00 0.00 0.00 33 1015.2
20260507135407 63 54 1.7 2.6 0.00 0.00 0.00 31 1015.2
20260507134507 63 188 2.6 4.3 0.00 0.00 0.00 33 1015.3
20260507133607 62 24 1.7 3.5 0.00 0.00 0.00 33 1015.3
20260507132728 62 251 1.7 3.5 0.00 0.00 0.00 33 1015.3
20260507131807 62 231 2.6 4.3 0.00 0.00 0.00 34 1015.3
20260507130907 62 283 2.6 3.5 0.00 0.00 0.00 35 1015.4
20260507130007 62 110 1.7 3.5 0.00 0.00 0.00 36 1015.4
20260507125428 61 139 1.7 3.5 0.00 0.00 0.00 35 1015.4
20260507124528 61 214 0.0 1.7 0.00 0.00 0.00 35 1015.4
20260507123607 61 231 0.9 2.6 0.00 0.00 0.00 37 1015.5
20260507122707 61 243 1.7 3.5 0.00 0.00 0.00 37 1015.6
20260507121828 62 185 2.6 4.3 0.00 0.00 0.00 36 1015.5
20260507120907 62 166 1.7 3.5 0.00 0.00 0.00 34 1015.6
20260507120007 62 124 0.9 3.5 0.00 0.00 0.00 36 1015.6
20260507115428 61 240 1.7 2.6 0.00 0.00 0.00 40 1015.6
20260507114507 60 4 2.6 3.5 0.00 0.00 0.00 39 1015.7
20260507113628 60 69 2.6 5.2 0.00 0.00 0.00 39 1015.7
20260507112728 60 72 2.6 6.1 0.00 0.00 0.00 41 1015.7
20260507111807 61 217 0.9 3.5 0.00 0.00 0.00 39 1015.7
20260507110907 62 275 2.6 3.5 0.00 0.00 0.00 36 1015.8
20260507110007 62 42 2.6 4.3 0.00 0.00 0.00 39 1015.8
20260507105428 62 199 2.6 6.1 0.00 0.00 0.00 41 1015.9
20260507104507 62 169 2.6 4.3 0.00 0.00 0.00 42 1016.0
20260507103607 61 348 2.6 3.5 0.00 0.00 0.00 41 1015.9
20260507102707 61 206 3.5 4.3 0.00 0.00 0.00 42 1016.0
20260507101807 62 262 2.6 4.3 0.00 0.00 0.00 47 1016.1
20260507100907 61 263 2.6 5.2 0.00 0.00 0.00 49 1016.1
20260507100007 61 180 1.7 2.6 0.00 0.00 0.00 49 1016.1
20260507095407 61 199 1.7 3.5 0.00 0.00 0.00 49 1016.1
20260507094507 61 111 2.6 3.5 0.00 0.00 0.00 50 1016.1
20260507093628 61 151 3.5 3.5 0.00 0.00 0.00 53 1016.1
20260507092707 60 152 2.6 3.5 0.00 0.00 0.00 55 1016.1
20260507091807 59 258 2.6 4.3 0.00 0.00 0.00 61 1016.1
20260507090907 58 221 1.7 2.6 0.00 0.00 0.00 63 1016.0
20260507090007 58 177 0.9 3.5 0.00 0.00 0.00 62 1016.2
20260507085407 58 95 0.9 3.5 0.00 0.00 0.00 65 1016.2
20260507084507 58 144 1.7 3.5 0.00 0.00 0.00 70 1016.2
20260507083607 56 161 0.9 3.5 0.00 0.00 0.00 74 1016.1
20260507082707 55 177 0.9 3.5 0.00 0.00 0.00 78 1016.2
20260507081807 54 194 0.0 1.7 0.00 0.00 0.00 80 1016.1
20260507080928 53 116 0.9 1.7 0.00 0.00 0.00 85 1016.1
20260507080007 51 61 0.9 1.7 0.00 0.00 0.00 88 1016.2
20260507075407 51 135 0.0 1.7 0.00 0.00 0.00 90 1016.1
20260507074507 50 135 0.9 2.6 0.00 0.00 0.00 91 1016.1
20260507073606 49 148 0.9 2.6 0.00 0.00 0.00 92 1016.1
20260507072706 47 138 0.0 1.7 0.00 0.00 0.00 94 1016.1
20260507071828 47 58 0.9 1.7 0.00 0.00 0.00 94 1016.1
20260507070907 46 45 0.0 1.7 0.00 0.00 0.00 94 1016.1
20260507070010 46 135 0.0 1.7 0.00 0.00 0.00 94 1016.1
20260507065428 45 60 0.0 1.7 0.00 0.00 0.00 94 1016.1
20260507064507 44 45 0.0 1.7 0.00 0.00 0.00 94 1016.0
20260507063607 44 0 0.0 0.0 0.00 0.00 0.00 94 1016.1
20260507062707 43 0 0.0 0.0 0.00 0.00 0.00 94 1016.0
20260507061828 43 0 0.0 0.0 0.00 0.00 0.00 95 1016.1
20260507060907 42 0 0.0 0.0 0.00 0.00 0.00 94 1016.0
20260507060007 42 0 0.0 0.0 0.00 0.00 0.00 94 1016.0
20260507055406 41 0 0.0 0.0 0.00 0.00 0.00 93 1015.9
20260507054506 40 0 0.0 0.0 0.00 0.00 0.00 94 1015.9
20260507053607 40 0 0.0 0.0 0.00 0.00 0.00 93 1015.9
20260507052707 38 0 0.0 0.0 0.00 0.00 0.00 93 1015.8
20260507051806 37 0 0.0 0.0 0.00 0.00 0.00 89 1015.7
20260507050907 36 0 0.0 0.0 0.00 0.00 0.00 88 1015.7
20260507050006 36 0 0.0 0.0 0.00 0.00 0.00 88 1015.6
20260507045406 36 0 0.0 0.0 0.00 0.00 0.00 88 1015.6
20260507044507 36 0 0.0 0.0 0.00 0.00 0.00 88 1015.5
20260507043627 36 0 0.0 0.0 0.00 0.00 0.00 88 1015.5
20260507042728 36 0 0.0 0.0 0.00 0.00 0.00 88 1015.4
20260507041806 36 0 0.0 0.0 0.00 0.00 0.00 88 1015.5
20260507040928 37 0 0.0 0.0 0.00 0.00 0.00 88 1015.6
20260507040028 37 0 0.0 0.0 0.00 0.00 0.00 87 1015.5
20260507035407 37 0 0.0 0.0 0.00 0.00 0.00 87 1015.5
20260507034507 37 0 0.0 0.0 0.00 0.00 0.00 87 1015.5
20260507033607 37 0 0.0 0.0 0.00 0.00 0.00 87 1015.5
20260507032706 38 0 0.0 0.0 0.00 0.00 0.00 91 1015.4
20260507031807 38 0 0.0 0.0 0.00 0.00 0.00 91 1015.6
20260507030906 38 0 0.0 0.0 0.00 0.00 0.00 91 1015.5
20260507030006 38 0 0.0 0.0 0.00 0.00 0.00 91 1015.5
20260507025406 38 0 0.0 0.0 0.00 0.00 0.00 91 1015.5